sat.trackr.live / text

‹ back to catalog

STARLINK-6324

NORAD 57353 · 2023-099AB

PAYLOAD ACTIVE UNKNOWN

§ Identity

Operator
Country
US
Launch date
2023-07-16
Launch site
AFETR
Launch vehicle
Mass (kg)
RCS (m²)

Purposes: comms

External: N2YO · Heavens-Above · Gunter

§ Orbital elements

Epoch: 2026-09-20T06:12:03.408192Z

Period
94.27 min
Inclination
43.0016°
Eccentricity
0.0001528
Mean motion
15.27575178 rev/d
Perigee alt
482.0 km
Apogee alt
484.1 km
Semi-major
6,861.2 km
B*
-4.5353e-6
RAAN
230.1299°
Arg perigee
261.7370°
Mean anomaly
98.3308°
Rev number
17,587

§ Raw data

STARLINK-63241 57353U 23099AB  26263.25837278 -.00000387  00000+0 -45353-5 0  99912 57353  43.0016 230.1299 0001528 261.7370  98.3308 15.27575178175874

JSON: /api/v1/satellites/57353 · /tle

For live sub-satellite position, see the globe view (requires WebGL).

§ Visibility from observer

Set your observer location to see the next 7 days of passes ≥ 10°. The values pass through the URL so the page stays shareable.

No JS? Fill the form by hand. The geolocation button needs JavaScript.